Weather Service Report


575 
ASUS43 KLMK 290010
RWRKY 
KENTUCKY REGIONAL WEATHER ROUNDUP
NATIONAL WEATHER SERVICE LOUISVILLE KY
700 PM EST SUN DEC 28 2014

NOTE "FAIR" INDICATES FEW OR NO CLOUDS BELOW 12,000 FEET
WITH NO SIGNIFICANT WEATHER AND/OR OBSTRUCTIONS TO VISIBILITY.

KYZ001>023-026-027-061>063-070>075-290100-
WESTERN AND SOUTH CENTRAL KENTUCKY
  
CITY           SKY/WX    TMP DP  RH WIND       PRES   REMARKS
PADUCAH        CLOUDY    35  29  78 NE8       30.20S WCI  29          
HENDERSON      CLOUDY    34  27  75 N5        30.22S WCI  30          
OWENSBORO      CLOUDY    35  30  82 NE5       30.21F WCI  31          
HOPKINSVILLE   CLOUDY    35  32  88 N7        30.19S WCI  29          
BOWLING GREEN  CLOUDY    37  33  85 N3        30.20R                  
GLASGOW        RAIN      37  37 100 CALM      30.18S                  
$$

KYZ024-025-028>034-038-045-046-053-290100-
NORTH CENTRAL KENTUCKY
  
CITY           SKY/WX    TMP DP  RH WIND       PRES   REMARKS
LOUISVILLE/SDF CLOUDY    36  29  75 N6        30.21R WCI  31          
LOUISVILLE/LOU CLOUDY    36  29  75 N6        30.21R WCI  31          
FORT KNOX      CLOUDY    35  31  87 NW3       30.18R                  
$$

KYZ035>037-039>044-047>052-055>060-089>105-290100-
NORTHEAST KENTUCKY
  
CITY           SKY/WX    TMP DP  RH WIND       PRES   REMARKS
LEXINGTON      CLOUDY    35  33  92 N7        30.17R FOG     WCI  29  
COVINGTON      CLOUDY    35  27  72 NW5       30.18R WCI  31          
FRANKFORT      CLOUDY    35  31  85 NW5       30.18R WCI  31          
$$

KYZ054-064>069-076>088-106>120-290100-
SOUTHEAST KENTUCKY
  
CITY           SKY/WX    TMP DP  RH WIND       PRES   REMARKS
JACKSON        LGT RAIN  39  37  92 NW6       30.14R WCI  35          
LONDON         LGT RAIN  42  37  82 NW6       30.15R                  
SOMERSET       DRIZZLE   37  37 100 N3        30.18R                  
MIDDLESBORO    DRIZZLE   46  44  95 CALM      30.13R                  
MONTICELLO     CLOUDY    41  40  96 N6        30.19R FOG              
$$


Return to Home page


Western Regional Climate Center, wrcc@dri.edu